Weather in Nakanno

Russia / Irkutsk Oblast     62°54′05″N   108°26′47″E
temp.,
°C
wind,
m/s
gust,
m/s
humid.,
%
clouds,
%
prec.,
mm/h
press.,
hPa
HPBL,
m
17 june, thu
thu1723:00+13nnw11686 0.0 101110
02:00+11ne11725 0.0 101210
05:00+13n116814 0.0 101212
08:00+19nw11485 0.0 1012367
11:00+23nne133454 0.0 10112553
14:00+20nw115082 0.0 101050
17:00+22w3441100 0.0 1010815
20:00+16nne148091 2.9 1011129
18 june, fri
fri1823:00+14se117785 0.1 101011
02:00+10ne11801 0.1 101010
05:00+12nne11770 0.0 101011
08:00+18n12594 0.0 1009328
11:00+23ne224019 0.0 10081471
14:00+25se233171 0.0 10062836
17:00+25ne223594 0.0 10061837
20:00+21sse245020 0.0 1006112
19 june, sat
sat1923:00+17ene225061 0.0 100622
02:00+14e116450 0.0 100610
05:00+15e1166100 0.0 100620
08:00+18se1260100 0.0 1007157
11:00+20se1254100 0.0 1007452
14:00+21ne2251100 0.1 1007484
17:00+21n1245100 0.0 1006779
20:00+21ne225798 0.0 100636
20 june, sun
sun2023:00+18ene2258100 0.0 100616
02:00+15ene22705 0.0 100614
05:00+16ene117155 0.0 100712
08:00+22ene235199 0.0 1006355
11:00+25e45415 0.0 10061404
14:00+25ese3444100 0.0 10051279
17:00+24e1349100 0.1 1004466
20:00+24se11558 0.1 100514
21 june, mon
mon2123:00+19e11645 0.0 100511
02:00+16ene117939 0.1 100711
05:00+18sse11725 0.0 100711
08:00+23s12515 0.0 1007429
11:00+26ssw243758 0.0 10061967
14:00+25nnw2245100 0.0 1006567
17:00+22wnw556031 0.1 1006382
20:00+22ene236410 0.5 1005205